TimeMST,TemperatureF,Dew PointF,Humidity,Sea Level PressureIn,VisibilityMPH,Wind Direction,Wind SpeedMPH,Gust SpeedMPH,PrecipitationIn,Events,Conditions,WindDirDegrees,DateUTC
12:15 AM,44.6,26.6,49,29.93,10.0,North,8.1,-,N/A,,Clear,350,2012-12-09 07:15:00
12:35 AM,44.6,26.6,49,29.94,10.0,North,5.8,-,N/A,,Clear,360,2012-12-09 07:35:00
12:55 AM,44.6,24.8,46,29.94,10.0,East,3.5,-,N/A,,Clear,90,2012-12-09 07:55:00
1:15 AM,42.8,24.8,49,29.94,10.0,Calm,Calm,-,N/A,,Unknown,0,2012-12-09 08:15:00
1:35 AM,42.8,24.8,49,29.94,10.0,NE,3.5,-,N/A,,Unknown,40,2012-12-09 08:35:00
1:55 AM,41.0,24.8,53,29.94,10.0,NNE,3.5,-,N/A,,Clear,30,2012-12-09 08:55:00
2:15 AM,41.0,24.8,53,29.95,10.0,North,4.6,-,N/A,,Clear,360,2012-12-09 09:15:00
2:35 AM,41.0,24.8,53,29.95,10.0,NNE,3.5,-,N/A,,Clear,30,2012-12-09 09:35:00
2:55 AM,41.0,24.8,53,29.95,10.0,Calm,Calm,-,N/A,,Unknown,0,2012-12-09 09:55:00
3:15 AM,41.0,24.8,53,29.95,10.0,NNW,5.8,-,N/A,,Unknown,340,2012-12-09 10:15:00
3:35 AM,39.2,24.8,56,29.95,10.0,North,6.9,-,N/A,,Unknown,350,2012-12-09 10:35:00
3:55 AM,39.2,23.0,52,29.95,10.0,North,4.6,-,N/A,,Unknown,10,2012-12-09 10:55:00
4:15 AM,39.2,24.8,56,29.95,10.0,Calm,Calm,-,N/A,,Unknown,0,2012-12-09 11:15:00
4:35 AM,39.2,23.0,52,29.95,10.0,North,3.5,-,N/A,,Clear,360,2012-12-09 11:35:00
4:55 AM,39.2,23.0,52,29.94,10.0,Calm,Calm,-,N/A,,Clear,0,2012-12-09 11:55:00
5:15 AM,37.4,24.8,60,29.95,3.0,Calm,Calm,-,N/A,,Clear,0,2012-12-09 12:15:00
5:35 AM,37.4,24.8,60,29.95,5.0,WNW,3.5,-,N/A,,Clear,300,2012-12-09 12:35:00
5:55 AM,37.4,23.0,56,29.96,7.0,NW,5.8,-,N/A,,Clear,320,2012-12-09 12:55:00
6:15 AM,37.4,23.0,56,29.97,10.0,NW,6.9,-,N/A,,Unknown,320,2012-12-09 13:15:00
6:35 AM,37.4,24.8,60,29.97,10.0,NW,5.8,-,N/A,,Unknown,320,2012-12-09 13:35:00
6:55 AM,37.4,24.8,60,29.97,10.0,NNW,4.6,-,N/A,,Unknown,330,2012-12-09 13:55:00
7:35 AM,35.6,24.8,65,29.98,10.0,Calm,Calm,-,N/A,,Clear,0,2012-12-09 14:35:00
7:55 AM,37.4,23.0,56,29.99,5.0,North,8.1,-,N/A,,Clear,350,2012-12-09 14:55:00
8:15 AM,41.0,23.0,49,30.00,8.0,North,6.9,-,N/A,,Clear,360,2012-12-09 15:15:00
8:35 AM,44.6,24.8,46,29.99,9.0,NNE,3.5,-,N/A,,Clear,20,2012-12-09 15:35:00
8:55 AM,46.4,28.4,50,30.00,9.0,Calm,Calm,-,N/A,,Clear,0,2012-12-09 15:55:00
9:15 AM,48.2,32.0,54,30.00,10.0,Calm,Calm,-,N/A,,Clear,0,2012-12-09 16:15:00
9:35 AM,48.2,32.0,54,30.02,9.0,Calm,Calm,-,N/A,,Clear,0,2012-12-09 16:35:00
9:55 AM,50.0,32.0,50,30.02,9.0,Calm,Calm,-,N/A,,Clear,0,2012-12-09 16:55:00
10:15 AM,53.6,32.0,44,30.03,10.0,Calm,Calm,-,N/A,,Clear,0,2012-12-09 17:15:00
10:35 AM,55.4,32.0,41,30.03,10.0,Calm,Calm,-,N/A,,Clear,0,2012-12-09 17:35:00
10:55 AM,57.2,32.0,38,30.03,10.0,Calm,Calm,-,N/A,,Clear,0,2012-12-09 17:55:00
11:15 AM,59.0,32.0,36,30.03,10.0,Calm,Calm,-,N/A,,Clear,0,2012-12-09 18:15:00
11:35 AM,59.0,32.0,36,30.02,10.0,Calm,Calm,-,N/A,,Clear,0,2012-12-09 18:35:00
11:55 AM,60.8,32.0,34,30.02,10.0,Calm,Calm,-,N/A,,Clear,0,2012-12-09 18:55:00
12:15 PM,62.6,32.0,32,30.01,10.0,Calm,Calm,-,N/A,,Clear,0,2012-12-09 19:15:00
12:35 PM,62.6,30.2,30,30.00,10.0,Calm,Calm,-,N/A,,Clear,0,2012-12-09 19:35:00
12:55 PM,64.4,32.0,30,29.99,10.0,SSW,4.6,-,N/A,,Clear,210,2012-12-09 19:55:00
1:35 PM,66.2,26.6,23,29.98,9.0,SW,5.8,-,N/A,,Clear,220,2012-12-09 20:35:00
1:55 PM,66.2,26.6,23,29.97,10.0,WSW,4.6,-,N/A,,Clear,240,2012-12-09 20:55:00
2:15 PM,66.2,26.6,23,29.96,10.0,WSW,6.9,-,N/A,,Clear,240,2012-12-09 21:15:00
2:35 PM,68.0,26.6,21,29.96,10.0,SW,6.9,-,N/A,,Clear,230,2012-12-09 21:35:00
2:55 PM,68.0,26.6,21,29.95,10.0,SW,4.6,-,N/A,,Clear,230,2012-12-09 21:55:00
3:15 PM,68.0,26.6,21,29.96,10.0,SW,3.5,-,N/A,,Clear,220,2012-12-09 22:15:00
3:35 PM,69.8,24.8,18,29.96,9.0,SSW,5.8,-,N/A,,Clear,200,2012-12-09 22:35:00
3:55 PM,71.6,24.8,17,29.95,10.0,SSW,5.8,-,N/A,,Clear,200,2012-12-09 22:55:00
4:15 PM,71.6,23.0,16,29.95,10.0,SW,4.6,-,N/A,,Clear,220,2012-12-09 23:15:00
4:55 PM,71.6,19.4,14,29.97,10.0,NW,10.4,-,N/A,,Clear,310,2012-12-09 23:55:00
5:15 PM,69.8,19.4,15,29.97,9.0,NW,6.9,-,N/A,,Clear,320,2012-12-10 00:15:00
5:35 PM,68.0,17.6,15,29.98,10.0,NW,6.9,-,N/A,,Clear,310,2012-12-10 00:35:00
5:55 PM,66.2,19.4,17,29.98,10.0,NW,5.8,-,N/A,,Clear,310,2012-12-10 00:55:00
6:15 PM,64.4,19.4,18,30.00,10.0,WNW,6.9,-,N/A,,Clear,300,2012-12-10 01:15:00
6:35 PM,62.6,19.4,19,30.01,10.0,WNW,5.8,-,N/A,,Clear,300,2012-12-10 01:35:00
6:55 PM,60.8,19.4,20,30.02,9.0,NNE,6.9,-,N/A,,Clear,20,2012-12-10 01:55:00
7:35 PM,62.6,15.8,16,30.03,10.0,NNW,11.5,-,N/A,,Clear,340,2012-12-10 02:35:00
7:55 PM,62.6,15.8,16,30.05,10.0,NNW,9.2,-,N/A,,Clear,340,2012-12-10 02:55:00
8:15 PM,59.0,14.0,17,30.06,9.0,NNW,9.2,-,N/A,,Clear,340,2012-12-10 03:15:00
8:35 PM,57.2,12.2,17,30.07,10.0,NNW,8.1,-,N/A,,Clear,340,2012-12-10 03:35:00
8:55 PM,57.2,10.4,16,30.08,10.0,North,5.8,-,N/A,,Clear,350,2012-12-10 03:55:00
9:15 PM,57.2,6.8,13,30.08,10.0,North,12.7,-,N/A,,Clear,350,2012-12-10 04:15:00
9:35 PM,57.2,5.0,12,30.09,10.0,North,12.7,-,N/A,,Clear,350,2012-12-10 04:35:00
9:55 PM,57.2,6.8,13,30.10,10.0,North,15.0,18.4,N/A,,Clear,350,2012-12-10 04:55:00
10:15 PM,57.2,6.8,13,30.11,8.0,NNW,12.7,-,N/A,,Clear,340,2012-12-10 05:15:00
10:35 PM,55.4,8.6,15,30.12,8.0,North,13.8,19.6,N/A,,Clear,360,2012-12-10 05:35:00
10:55 PM,57.2,8.6,14,30.13,10.0,North,12.7,-,N/A,,Clear,360,2012-12-10 05:55:00
11:15 PM,57.2,8.6,14,30.14,10.0,North,12.7,-,N/A,,Clear,360,2012-12-10 06:15:00
11:35 PM,55.4,8.6,15,30.14,10.0,North,12.7,-,N/A,,Clear,360,2012-12-10 06:35:00
11:55 PM,55.4,6.8,14,30.14,10.0,NNE,9.2,-,N/A,,Clear,20,2012-12-10 06:55:00